Location: Cheching
(60.0667°N, 164.2167°W)
Time: 10:25:51
(UTC+00:00)

UNISAT 6 - Pass Details

Date: 21 January 2021
Orbit: 607 x 687 km, 97.7° (Epoch: 24 February)

Event Time Altitude Azimuth Distance (km) Brightness Sun altitude
Rises 16:50:40 0° 148° (SSE) 2,871 ? -19.2°
Reaches altitude 10° 16:52:51 10° 144° (SE) 1,976 ? -18.9°
Maximum altitude 16:57:03 57° 67° (ENE) 738 ? -18.4°
Drops below altitude 10° 17:01:22 10° 349° (N) 2,026 ? -17.9°
Enters shadow 17:02:32 - 347° (NNW) 2,500 ? -17.7°
